TimeGMT,TemperatureF,Dew PointF,Humidity,Sea Level PressureIn,VisibilityMPH,Wind Direction,Wind SpeedMPH,Gust SpeedMPH,PrecipitationIn,Events,Conditions,WindDirDegrees,DateUTC
12:00 AM,45,43,92,29.85,9,SSW,15.7,,,Rain,Light Drizzle,210,2014-01-23 00:00:00
12:00 AM,44.6,42.8,93,29.83,6.2,SSW,15.0,-,N/A,,Mostly Cloudy,210,2014-01-23 00:00:00
12:30 AM,46.4,44.6,93,29.86,6.2,WSW,13.8,-,N/A,,Light Drizzle,240,2014-01-23 00:30:00
1:00 AM,47,43,82,29.86,12,West,17.9,,,Rain,Light Drizzle,270,2014-01-23 01:00:00
1:00 AM,48.2,42.8,82,29.86,6.2,West,17.3,-,N/A,,Mostly Cloudy,270,2014-01-23 01:00:00
1:30 AM,46.4,41.0,81,29.86,6.2,West,21.9,34.5,N/A,,Mostly Cloudy,260,2014-01-23 01:30:00
2:00 AM,46,40,74,29.88,12,West,20.1,,,Rain,Light Rain,280,2014-01-23 02:00:00
2:00 AM,46.4,41.0,81,29.86,6.2,West,19.6,-,N/A,Rain,Light Rain,280,2014-01-23 02:00:00
2:30 AM,44.6,41.0,87,29.86,6.2,West,15.0,-,N/A,,Mostly Cloudy,260,2014-01-23 02:30:00
3:00 AM,45,42,83,29.88,12,West,15.7,,,Rain,Light Rain Showers,270,2014-01-23 03:00:00
3:00 AM,44.6,41.0,87,29.86,6.2,West,16.1,-,N/A,,Mostly Cloudy,270,2014-01-23 03:00:00
3:30 AM,46.4,41.0,81,29.86,6.2,West,16.1,-,N/A,,Mostly Cloudy,260,2014-01-23 03:30:00
4:00 AM,44,40,79,29.89,9,West,29.1,,,Rain,Light Rain Showers,280,2014-01-23 04:00:00
4:00 AM,44.6,39.2,81,29.89,6.2,West,29.9,49.5,N/A,Rain,Light Rain Showers,280,2014-01-23 04:00:00
4:30 AM,44.6,39.2,81,29.89,6.2,West,15.0,-,N/A,,Mostly Cloudy,270,2014-01-23 04:30:00
5:00 AM,43,39,80,29.91,9,WNW,22.4,,,Rain,Light Rain Showers,300,2014-01-23 05:00:00
5:00 AM,42.8,39.2,87,29.89,6.2,WNW,21.9,38.0,N/A,,Mostly Cloudy,300,2014-01-23 05:00:00
5:30 AM,42.8,37.4,81,29.92,6.2,WNW,19.6,32.2,N/A,,Mostly Cloudy,290,2014-01-23 05:30:00
6:00 AM,43,39,79,29.92,9,West,13.4,,,Rain,Light Rain Showers,270,2014-01-23 06:00:00
6:00 AM,42.8,39.2,87,29.92,6.2,West,12.7,-,N/A,Rain,Light Rain Showers,270,2014-01-23 06:00:00
6:30 AM,44.6,39.2,81,29.92,6.2,West,13.8,-,N/A,Rain,Light Rain Showers,270,2014-01-23 06:30:00
7:00 AM,43,39,82,29.94,12,West,8.9,,,Rain,Light Rain Showers,280,2014-01-23 07:00:00
7:00 AM,42.8,39.2,87,29.92,6.2,West,8.1,-,N/A,,Mostly Cloudy,280,2014-01-23 07:00:00
7:30 AM,42.8,37.4,81,29.95,6.2,WNW,20.7,33.4,N/A,,Mostly Cloudy,290,2014-01-23 07:30:00
8:00 AM,43,38,75,29.98,9,West,15.7,,,Rain,Light Rain Showers,270,2014-01-23 08:00:00
8:00 AM,42.8,37.4,81,29.98,6.2,West,15.0,-,N/A,Rain,Light Rain Showers,270,2014-01-23 08:00:00
8:30 AM,42.8,37.4,81,29.95,6.2,West,15.0,-,N/A,,Mostly Cloudy,280,2014-01-23 08:30:00
9:00 AM,42,38,80,29.99,8,WSW,11.2,,,Rain,Light Rain Showers,250,2014-01-23 09:00:00
9:00 AM,42.8,37.4,81,29.98,6.2,WSW,10.4,-,N/A,,Mostly Cloudy,250,2014-01-23 09:00:00
9:30 AM,44.6,37.4,76,29.98,6.2,West,10.4,-,N/A,,Mostly Cloudy,270,2014-01-23 09:30:00
10:00 AM,44,38,73,29.99,9,WNW,2.2,,,Rain,Light Rain,300,2014-01-23 10:00:00
10:00 AM,42.8,37.4,81,29.98,6.2,WNW,2.3,-,N/A,Rain,Light Rain,300,2014-01-23 10:00:00
10:30 AM,44.6,39.2,81,29.98,6.2,WNW,8.1,-,N/A,Rain,Light Rain,290,2014-01-23 10:30:00
11:00 AM,45,39,72,30.01,10,West,8.9,,,Rain,Light Rain,280,2014-01-23 11:00:00
11:00 AM,44.6,39.2,81,30.01,6.2,West,9.2,-,N/A,,Mostly Cloudy,280,2014-01-23 11:00:00
11:30 AM,44.6,39.2,81,30.01,5.0,West,9.2,-,N/A,,Mostly Cloudy,270,2014-01-23 11:30:00
12:00 PM,44,39,78,30.01,12,West,11.2,,,Rain,Light Rain,260,2014-01-23 12:00:00
12:00 PM,44.6,39.2,81,30.01,6.2,West,11.5,-,N/A,,Mostly Cloudy,260,2014-01-23 12:00:00
12:30 PM,44.6,39.2,81,30.01,6.2,WSW,9.2,-,N/A,,Mostly Cloudy,250,2014-01-23 12:30:00
1:00 PM,44,40,80,30.01,10,WSW,20.1,,,Rain,Light Rain,250,2014-01-23 13:00:00
1:00 PM,44.6,39.2,81,30.01,6.2,WSW,20.7,-,N/A,,Mostly Cloudy,250,2014-01-23 13:00:00
1:30 PM,44.6,39.2,81,29.98,6.2,West,13.8,-,N/A,,Mostly Cloudy,260,2014-01-23 13:30:00
2:00 PM,45,40,78,30.00,8,WSW,17.9,,,Rain,Light Rain,240,2014-01-23 14:00:00
2:00 PM,44.6,41.0,87,29.98,6.2,WSW,18.4,-,N/A,Rain,Light Rain,240,2014-01-23 14:00:00
2:30 PM,44.6,41.0,87,30.01,4.3,WNW,16.1,-,N/A,Rain,Light Rain,300,2014-01-23 14:30:00
3:00 PM,44,40,83,30.00,12,West,8.9,,,Rain,Light Rain,270,2014-01-23 15:00:00
3:00 PM,44.6,41.0,87,29.98,6.2,West,8.1,-,N/A,,Mostly Cloudy,270,2014-01-23 15:00:00
3:30 PM,44.6,39.2,81,30.01,5.0,West,11.5,-,N/A,Rain,Light Rain,270,2014-01-23 15:30:00
4:00 PM,44,40,81,30.01,5,West,8.9,,,Rain,Light Rain,270,2014-01-23 16:00:00
4:00 PM,44.6,41.0,87,30.01,5.0,West,8.1,-,N/A,Rain,Light Rain,270,2014-01-23 16:00:00
4:30 PM,44.6,41.0,87,30.01,6.2,West,11.5,-,N/A,Rain,Light Rain,270,2014-01-23 16:30:00
5:00 PM,44,41,85,30.01,7,West,8.9,,,Rain,Light Rain,260,2014-01-23 17:00:00
5:00 PM,44.6,41.0,87,30.01,6.2,West,8.1,-,N/A,Rain,Light Rain,260,2014-01-23 17:00:00
5:30 PM,44.6,41.0,87,30.01,5.0,SW,5.8,-,N/A,Rain,Light Rain,220,2014-01-23 17:30:00
6:00 PM,43,42,94,30.01,4,SSW,6.7,,,Rain,Light Rain,200,2014-01-23 18:00:00
6:00 PM,42.8,42.8,100,30.01,3.7,SSW,6.9,-,N/A,Rain,Light Rain,200,2014-01-23 18:00:00
6:30 PM,42.8,42.8,100,30.01,3.1,South,6.9,-,N/A,Rain,Light Rain,190,2014-01-23 18:30:00
7:00 PM,44,43,94,30.00,5,SSW,8.9,,,Rain,Light Rain,210,2014-01-23 19:00:00
7:00 PM,44.6,42.8,93,29.98,5.0,SSW,9.2,-,N/A,Rain,Light Rain,210,2014-01-23 19:00:00
7:30 PM,44.6,42.8,93,29.98,5.0,SSW,9.2,-,N/A,Rain,Light Rain,210,2014-01-23 19:30:00
8:00 PM,44,43,93,29.98,5,SSW,6.7,,,Rain,Light Rain,200,2014-01-23 20:00:00
8:00 PM,44.6,42.8,93,29.98,5.0,SSW,6.9,-,N/A,Rain,Light Rain,200,2014-01-23 20:00:00
8:30 PM,44.6,42.8,93,29.95,2.5,SSE,6.9,-,N/A,,Light Drizzle,160,2014-01-23 20:30:00
9:00 PM,44,43,93,29.94,2,SSE,8.9,,,Rain,Light Drizzle,150,2014-01-23 21:00:00
9:00 PM,42.8,42.8,100,29.92,2.5,SSE,9.2,-,N/A,,Light Drizzle,150,2014-01-23 21:00:00
9:30 PM,42.8,42.8,100,29.92,2.5,SSE,10.4,-,N/A,Rain,Light Rain,150,2014-01-23 21:30:00
10:00 PM,43,43,98,29.91,4,SE,11.2,,,Rain,Light Rain,140,2014-01-23 22:00:00
10:00 PM,42.8,42.8,100,29.89,3.7,SE,11.5,-,N/A,Rain,Light Rain,140,2014-01-23 22:00:00
10:30 PM,42.8,42.8,100,29.86,3.7,SE,12.7,-,N/A,Rain,Light Rain,130,2014-01-23 22:30:00
11:00 PM,43,43,98,29.86,4,SE,11.2,,,Rain,Light Rain,130,2014-01-23 23:00:00
11:00 PM,42.8,42.8,100,29.83,3.7,SE,11.5,-,N/A,Rain,Light Rain,130,2014-01-23 23:00:00
11:30 PM,44.6,44.6,100,29.80,3.7,ESE,9.2,-,N/A,Rain,Rain,120,2014-01-23 23:30:00